Temp
29 27 25 26 28 30 31 31 31 32 35 33 32 32 32 34 35 34 28 27 24 22 21 22 25 26 24 26 25 21 26 25 24 24 22 22 19 20 20 19 19 18 17 16
28 26 28 31 32 32 32 30 30 32 34 34 32 33 35 34 34 33 28 25 23 21 21 20 22 24 23 27 21 20 22 23 23 23 21 20 20 19 18 17 18 17 16 15
27 29 32 32 31 32 31 32 30 30 32 33 34 33 34 33 33 30 28 25 23 20 19 19 19 18 19 21 18 18 19 19 19 20 20 19 18 17 17 16 17 16 16 15
28 31 32 32 32 32 31 34 33 32 30 28 32 27 30 30 31 29 28 24 22 22 21 21 19 18 18 19 17 18 18 18 18 18 19 18 18 17 16 16 16 16 16 15
29 30 30 31 32 33 31 33 32 31 29 30 29 27 28 30 31 27 27 25 23 22 22 22 21 20 18 17 17 17 17 17 18 18 18 18 17 16 16 16 16 15 15 14
30 32 32 32 33 33 34 32 30 30 27 25 27 28 30 29 29 26 26 26 24 23 22 21 21 20 17 17 16 16 16 16 17 17 17 17 16 15 15 15 14 15 15 14
29 30 32 33 31 32 32 29 24 25 25 25 28 28 30 31 29 28 26 25 23 22 21 20 20 19 17 17 16 16 16 15 15 15 15 15 15 15 14 14 13 13 13 13
27 27 31 33 31 30 29 26 23 25 24 27 30 28 28 29 28 27 26 25 24 22 21 21 20 19 18 17 17 16 16 15 15 14 14 14 14 14 14 13 13 12 12 12
27 28 32 33 33 31 29 28 28 27 27 26 28 30 29 29 28 27 26 25 24 23 21 20 20 19 19 18 17 17 16 15 15 14 14 14 13 13 13 13 12 12 11 11
28 26 31 32 33 31 30 29 28 24 25 25 27 29 27 27 27 27 25 24 23 22 21 20 19 19 19 19 18 17 16 15 15 15 14 14 13 13 13 12 12 11 11 11
29 25 29 30 29 30 29 28 28 25 24 23 25 26 28 28 27 26 26 24 23 22 21 20 19 19 19 18 17 17 16 15 15 14 14 13 13 13 12 12 12 11 11 11
28 26 25 28 31 32 29 28 26 23 26 25 24 25 30 28 28 27 27 25 24 23 21 19 19 19 19 18 17 17 16 15 15 14 13 13 12 12 12 12 12 11 11 11
28 24 26 27 28 30 30 30 28 26 24 25 24 24 27 29 29 27 27 26 23 22 21 20 19 19 18 18 17 17 16 15 14 14 13 13 12 12 12 12 11 11 11 11
28 24 27 25 27 28 30 30 30 26 23 25 25 28 29 24 23 22 21 20 19 18 20 20 18 18 18 18 17 16 15 14 13 13 13 13 13 12 12 12 12 11 11 11
26 25 27 27 30 30 30 30 30 28 27 26 28 28 25 24 21 21 20 19 19 19 22 20 18 17 18 18 17 15 14 14 13 13 13 13 13 13 13 12 12 12 12 11
25 25 27 27 30 31 30 30 30 30 30 29 29 29 26 23 22 21 21 20 19 22 22 20 19 18 17 17 16 15 14 13 13 13 13 13 13 13 13 13 13 13 12 12
23 23 24 24 28 29 28 29 30 30 30 30 27 25 25 24 25 22 21 22 23 24 22 20 19 18 17 17 15 14 14 13 13 13 13 14 14 14 13 13 13 12 12 12
24 23 23 24 26 25 28 29 30 29 31 29 26 26 24 23 23 23 24 23 22 22 20 19 18 17 16 15 14 14 13 13 13 14 14 14 14 13 13 13 12 12 12 12
23 23 23 22 23 27 28 29 29 28 28 28 26 26 25 24 23 21 23 22 20 19 19 17 16 15 15 14 14 13 13 13 13 13 14 14 13 13 13 13 12 12 12 12
24 21 24 23 23 23 27 26 25 29 25 25 27 25 24 24 21 20 21 20 19 18 17 15 15 15 14 14 13 13 13 13 13 13 13 13 13 13 13 12 12 12 12 12
20 19 21 22 23 25 24 25 26 24 21 22 24 25 24 23 21 19 20 18 18 17 15 15 15 14 13 13 13 13 14 13 13 13 13 13 13 13 13 13 13 13 12 12
20 18 18 18 18 20 24 24 24 21 21 21 20 20 20 20 20 19 18 17 17 16 15 15 14 13 13 13 13 13 13 13 13 13 13 13 13 13 13 13 13 13 13 12
19 19 17 18 18 19 20 23 21 20 22 22 22 21 21 20 19 19 17 16 16 16 15 14 13 13 13 13 13 13 13 13 13 13 13 13 13 13 13 13 13 13 13 13
21 21 19 21 21 20 22 21 21 23 23 23 22 22 21 20 19 18 17 16 16 16 14 14 14 13 13 13 13 13 14 13 13 13 13 13 13 13 13 13 14 13 12 11
17 18 18 22 21 21 23 23 23 24 24 23 23 22 21 20 19 18 17 16 16 16 16 15 14 13 13 13 13 14 13 13 13 12 12 12 12 13 13 13 13 13 11 10
15 16 17 18 18 20 21 21 22 23 24 24 23 22 21 20 19 18 17 17 17 16 16 15 15 14 14 14 14 14 13 13 13 12 12 12 12 13 13 13 13 13 10 10
Height
780 800 814 801 789 783 783 787 788 767 748 757 768 767 759 744 742 747 764 771 781 785 794 785 782 790 796 810 821 825 806 813 819 826 823 823 825 828 830 831 833 833 832 832
793 803 784 774 772 776 777 786 787 763 748 752 764 764 750 748 747 746 760 772 780 790 793 795 791 789 792 795 809 823 817 819 819 822 823 823 825 829 830 834 833 832 831 831
797 782 768 772 774 777 778 778 783 783 760 756 756 770 759 748 746 755 757 767 773 783 793 800 804 805 807 811 819 825 820 821 822 821 822 822 826 829 832 834 832 831 830 830
784 767 769 772 776 768 787 759 767 772 784 810 764 823 778 762 759 767 765 772 779 785 792 795 805 811 813 820 823 821 819 819 823 823 820 825 826 830 833 833 832 831 829 828
780 772 772 774 767 760 777 758 771 773 785 786 783 809 788 759 765 776 770 773 779 783 785 793 805 810 815 817 820 823 819 820 821 819 823 825 830 831 832 831 831 830 829 829
765 746 754 758 748 750 751 766 775 776 793 828 795 799 787 777 769 772 767 770 778 783 789 798 806 811 816 821 823 821 820 820 820 824 827 829 829 830 830 829 828 828 828 828
770 762 746 741 759 751 760 786 832 835 835 834 785 796 773 751 751 752 761 769 777 784 792 799 806 811 814 817 819 819 821 825 827 828 829 828 828 829 828 828 828 827 828 827
795 796 757 737 751 768 774 791 834 843 843 816 778 802 780 747 747 753 759 767 774 784 791 799 805 810 812 815 819 821 824 826 828 828 828 828 828 827 827 827 827 828 828 827
787 779 740 735 734 747 771 790 774 803 796 818 796 773 766 752 756 758 767 772 778 782 788 796 803 808 810 813 817 819 822 824 826 827 827 827 827 827 827 828 829 828 828 827
761 788 746 737 731 736 753 755 793 806 831 834 803 789 792 773 771 765 769 774 780 785 788 796 801 805 808 812 815 818 820 823 825 826 827 827 827 828 829 829 829 828 827 826
748 773 760 747 753 754 761 771 772 786 800 827 827 805 758 759 762 766 765 770 776 784 788 796 799 805 808 811 814 817 819 821 823 825 826 827 829 829 829 830 829 828 827 826
738 759 779 756 731 724 735 755 767 808 799 794 803 802 741 747 747 750 755 762 771 780 786 795 801 807 809 811 814 817 819 821 823 825 827 829 829 830 830 829 829 828 826 825
731 762 780 766 748 730 742 738 748 762 776 792 809 805 745 740 741 749 755 767 781 790 792 796 801 805 809 813 814 817 819 822 825 827 828 829 830 830 830 829 828 827 826 824
710 746 752 776 758 744 742 737 736 759 791 784 782 769 753 761 761 765 768 776 787 798 806 804 803 805 807 815 815 818 820 823 826 828 829 830 830 830 829 828 827 826 824 822
715 744 737 737 729 729 737 740 736 751 756 773 762 759 757 756 763 766 769 777 780 781 797 800 803 806 808 813 814 817 821 824 826 828 829 829 829 828 827 826 825 824 822 820
721 738 730 740 725 725 736 731 732 730 734 741 742 749 735 747 752 763 765 770 776 776 783 794 801 803 808 810 812 816 821 823 826 827 827 827 827 827 825 824 823 821 820 818
740 741 743 755 731 731 751 731 728 727 723 731 751 745 740 749 748 757 760 761 766 774 783 793 797 801 804 807 811 816 820 823 825 826 826 826 826 825 824 823 821 820 819 816
736 738 744 752 743 770 722 707 709 720 712 718 736 739 744 747 748 747 744 753 765 772 784 790 794 799 803 808 812 816 820 823 824 825 825 825 825 824 823 822 821 819 816 813
724 734 748 759 755 732 718 710 716 724 724 709 726 728 734 744 746 758 750 753 764 773 782 788 793 798 804 808 812 816 820 822 823 824 824 824 824 823 822 821 819 817 814 811
716 725 732 742 753 755 720 711 705 697 743 720 708 727 735 739 768 774 762 759 769 776 782 790 795 800 805 810 814 818 821 822 823 823 823 824 823 822 820 819 817 815 812 808
733 738 741 741 741 727 712 708 699 742 756 721 722 724 729 740 747 758 762 769 773 780 787 793 797 802 808 812 816 819 821 822 823 823 823 822 821 820 819 817 814 811 809 806
729 742 750 754 762 758 711 710 730 725 719 718 724 734 755 744 748 757 765 773 780 785 790 796 800 806 811 814 817 819 821 822 823 823 822 821 820 818 817 814 812 809 806 804
726 719 737 736 737 720 719 707 708 712 713 719 724 730 748 746 752 762 768 775 783 788 793 798 803 808 812 815 817 819 821 823 822 822 820 819 818 816 814 812 809 806 804 801
697 693 714 710 711 708 716 710 701 702 707 713 721 733 738 748 755 763 770 778 785 791 795 800 805 810 813 816 818 820 821 822 822 821 820 818 817 814 812 809 806 803 801 800
719 711 717 697 701 707 707 705 701 698 702 712 721 730 738 744 755 761 772 779 786 791 796 801 805 810 813 815 817 819 820 821 821 820 819 817 815 813 810 807 804 802 800 800
725 725 723 718 706 707 704 705 699 700 705 713 720 731 737 741 752 766 775 779 786 791 796 801 805 808 811 815 817 818 820 821 820 820 818 816 814 812 809 806 803 800 799 799
Wind_Speed
7 3 7 11 12 15 12 12 14 11 5 8 9 7 10 9 4 7 18 19 18 21 17 28 38 39 43 14 6 15 25 20 15 17 18 19 14 10 4 3 4 8 8 7
6 11 11 14 15 15 16 10 10 8 10 4 9 7 3 5 6 6 18 15 17 14 12 15 33 46 42 31 3 3 11 19 21 19 14 14 10 7 5 4 4 5 7 7
11 11 16 17 16 13 10 3 8 8 12 6 4 1 3 10 5 17 16 16 12 18 16 12 13 17 21 18 2 14 21 20 14 13 12 13 11 11 7 2 2 5 9 8
9 18 17 15 13 11 5 4 8 12 7 4 3 5 6 8 10 14 16 19 17 19 15 13 14 13 14 18 11 14 17 19 16 14 13 14 12 8 7 4 1 6 6 4
14 14 11 16 10 9 7 5 6 8 9 4 12 2 8 5 10 11 16 21 18 18 18 17 18 23 24 17 15 14 16 15 14 15 15 14 15 12 8 5 5 6 9 7
11 11 15 18 11 9 5 5 7 4 3 3 10 3 10 7 9 9 15 20 19 18 17 17 23 25 25 18 16 15 16 16 13 11 9 9 9 8 7 8 10 10 12 11
15 17 14 11 9 5 5 1 2 3 3 7 8 6 15 8 15 18 19 18 18 17 16 15 14 18 22 18 16 16 17 17 13 11 11 11 10 9 10 9 10 12 12 12
11 12 17 11 10 8 7 9 6 6 5 6 7 6 9 11 14 14 15 16 17 16 14 14 19 22 25 24 21 19 18 17 12 9 11 10 9 9 10 10 10 11 12 14
5 18 15 15 6 10 9 6 9 4 6 3 4 4 5 14 14 14 13 14 13 14 11 12 17 22 26 24 22 21 20 13 10 10 9 9 10 9 8 8 8 9 11 13
14 12 17 11 12 10 11 7 4 1 5 5 7 4 4 10 11 11 11 10 9 11 13 12 16 23 24 22 22 18 14 13 12 9 9 10 7 6 6 6 8 11 12 13
15 8 23 12 5 14 4 5 3 4 6 6 3 5 8 14 15 14 13 13 16 13 14 12 16 23 23 21 20 18 13 12 10 10 7 5 3 4 4 6 7 10 10 13
11 10 8 17 20 9 11 11 10 5 5 3 6 5 1 13 16 19 19 18 15 15 13 11 18 22 20 20 17 13 14 15 9 5 5 3 2 3 4 2 6 8 9 11
11 6 8 10 9 6 8 8 7 5 5 7 5 5 6 5 4 5 14 13 11 10 13 12 15 16 21 21 18 12 14 13 8 5 3 2 1 3 4 5 3 9 9 10
17 7 13 13 11 5 3 6 7 7 4 5 6 5 3 4 12 15 20 19 16 11 5 8 9 15 23 20 19 17 14 9 4 3 2 2 1 4 4 3 9 8 8 8
8 8 7 11 13 14 8 9 11 9 7 8 9 9 9 10 15 18 22 18 19 18 13 12 10 13 23 20 20 17 11 4 2 2 1 2 3 3 7 7 8 8 9 7
8 4 7 8 13 18 15 15 11 9 7 6 9 6 7 6 16 18 19 18 18 17 18 15 12 18 19 22 20 17 9 4 3 2 4 4 5 5 7 7 6 10 10 11
6 3 5 7 7 8 14 17 15 9 9 7 9 6 9 7 7 13 15 18 16 14 17 14 14 18 22 22 22 16 9 5 3 3 5 6 4 4 5 8 12 7 10 12
13 8 2 5 4 12 6 8 10 12 15 6 16 11 8 9 8 9 6 18 13 15 13 13 17 21 25 24 19 14 8 5 4 5 8 3 5 6 8 9 8 12 13 14
9 9 5 6 7 6 12 10 6 3 5 18 20 21 17 13 15 11 14 15 14 12 13 20 27 30 26 21 14 9 5 5 6 8 5 6 7 8 8 11 12 11 15 19
8 7 7 2 9 15 1 3 6 2 4 10 22 21 19 11 7 3 11 18 16 22 25 25 28 28 24 17 12 8 4 6 2 7 5 6 8 6 11 10 12 16 17 21
4 4 8 6 7 5 2 2 4 6 7 6 9 16 13 8 10 11 15 14 23 25 27 29 27 24 18 12 10 3 3 6 4 4 5 7 6 9 12 9 16 17 21 21
8 7 4 3 3 6 1 3 5 6 11 18 16 14 8 18 19 16 16 15 18 22 24 26 25 20 14 10 9 6 4 2 2 3 6 7 9 10 12 11 17 18 18 0
5 7 8 9 8 8 10 5 6 7 18 18 24 21 14 19 18 16 14 14 16 20 22 25 22 16 11 7 8 7 5 2 3 6 8 9 10 10 15 16 19 21 16 9
9 4 5 7 8 12 10 6 9 6 13 20 22 20 20 20 17 15 14 12 12 19 22 23 20 17 11 8 7 3 7 3 5 7 8 11 10 12 13 19 17 18 13 4
3 4 6 5 13 10 6 5 9 16 19 20 20 21 20 19 15 16 13 10 17 20 22 24 21 17 13 11 7 6 5 3 4 7 10 12 14 16 20 19 16 12 6 5
2 3 3 2 6 4 6 4 6 17 13 16 20 18 18 18 16 15 11 20 20 21 23 20 19 16 14 12 9 7 5 2 4 5 9 12 13 16 15 16 16 17 3 3
Wind_Direction
246 186 233 225 235 242 267 277 278 282 303 144 195 209 247 269 228 169 91 97 106 104 119 120 135 143 164 212 265 330 153 170 163 152 141 137 121 121 134 214 251 269 317 328
255 225 233 242 245 245 256 280 288 308 337 90 200 224 226 277 293 136 112 108 121 113 127 123 135 159 178 187 149 306 152 170 182 182 165 136 128 133 172 192 275 328 325 345
216 244 223 245 262 267 265 285 310 294 312 325 140 303 283 293 326 105 107 107 94 115 128 116 133 146 160 156 153 111 108 115 120 136 132 129 133 122 120 141 285 328 337 330
232 237 253 241 245 258 263 299 289 289 322 278 131 252 251 242 252 104 103 115 123 125 125 123 133 160 169 184 126 116 110 107 115 121 108 109 113 130 137 146 334 341 341 328
234 242 249 250 235 230 235 289 269 279 313 304 301 76 266 253 220 115 104 123 123 125 125 123 125 125 127 124 114 114 104 99 97 101 110 111 109 117 123 95 32 36 11 294
245 226 233 242 245 207 266 275 297 313 38 343 255 233 278 269 148 134 120 118 117 114 111 114 122 123 122 126 118 109 99 86 85 104 120 114 114 96 78 57 34 23 25 47
266 263 257 250 226 235 173 187 321 340 333 250 265 269 256 284 150 141 131 120 121 119 122 128 134 134 128 122 113 102 105 104 110 112 107 101 88 74 78 52 29 24 17 9
233 261 254 246 199 178 202 164 164 210 222 260 275 249 270 118 100 101 112 121 125 132 141 146 147 147 143 140 133 131 127 121 116 99 93 89 88 75 55 38 33 30 10 350
235 232 260 230 211 148 247 236 199 199 275 339 240 114 4 119 123 126 127 133 141 143 137 135 128 126 129 136 141 138 129 124 110 101 90 73 76 65 55 46 31 18 0 357
244 274 272 277 227 195 179 200 199 339 249 241 271 238 193 143 143 135 137 141 127 131 121 123 126 127 128 129 130 130 123 121 115 110 94 90 70 62 49 53 21 10 15 6
213 197 267 282 264 204 181 229 218 150 163 196 228 266 188 171 161 162 165 150 145 138 134 129 127 127 128 125 120 124 126 126 114 109 90 80 63 49 47 10 22 11 6 1
207 198 236 257 267 241 173 190 183 149 274 216 161 264 335 158 176 177 173 155 143 138 127 125 120 133 143 137 136 138 128 127 117 111 101 77 54 36 1 13 8 8 1 353
208 221 224 276 299 319 217 197 181 173 149 220 142 264 232 229 171 149 155 129 93 97 121 127 129 146 135 134 128 126 126 119 121 111 104 53 29 44 346 340 345 336 343 353
178 176 201 221 239 233 221 185 207 159 162 211 209 230 193 78 89 90 94 100 89 61 213 149 142 142 136 141 142 131 119 124 122 119 174 248 329 341 328 317 312 330 333 328
146 188 177 220 211 248 261 275 214 213 204 180 229 229 162 164 132 125 123 129 148 166 177 157 153 140 140 144 137 133 137 143 138 314 197 290 291 303 301 291 309 290 315 297
304 214 166 221 219 227 253 270 265 222 261 209 198 204 169 106 121 140 152 158 166 181 157 155 147 140 146 146 143 141 143 127 163 222 262 256 253 286 302 301 317 318 306 311
303 329 144 237 221 217 246 234 252 220 215 219 214 163 130 137 134 149 160 169 167 157 150 149 152 150 152 151 143 137 135 160 194 254 278 296 277 317 360 347 333 4 350 334
274 263 214 216 180 229 239 200 249 260 204 158 95 94 87 98 88 67 74 155 142 134 143 141 134 125 132 130 125 128 147 176 207 251 282 1 13 4 358 347 345 341 334 322
223 231 253 183 207 244 239 256 228 103 250 153 141 148 137 115 81 42 72 98 114 122 120 119 124 127 124 123 129 138 163 183 243 297 55 13 350 342 342 333 324 330 323 318
233 225 220 191 207 229 122 124 263 97 70 7 139 138 139 132 107 136 97 100 98 102 110 114 117 121 121 125 136 144 175 251 74 41 6 336 323 342 333 335 336 327 324 317
159 99 201 225 232 247 109 272 276 124 195 40 151 151 155 139 141 137 109 96 102 108 110 115 119 120 123 131 135 163 118 77 34 9 333 319 348 339 329 323 332 320 315 321
171 158 183 136 63 266 184 57 150 205 134 104 86 98 100 114 114 109 108 108 110 113 111 116 116 120 127 137 149 132 84 66 34 335 318 330 326 324 327 313 322 321 321 226
166 180 176 184 200 275 281 236 168 170 129 126 128 123 132 120 115 117 117 111 114 118 117 123 125 127 139 148 160 143 143 99 355 334 10 352 335 330 333 327 316 314 306 294
6 112 165 140 178 163 229 304 139 167 135 131 132 136 133 128 125 122 113 120 124 123 124 132 138 137 137 149 149 172 127 61 0 12 338 323 341 341 326 330 327 322 316 48
19 306 318 106 147 141 182 184 120 111 124 128 130 133 130 124 125 123 127 130 128 134 139 145 146 149 159 174 189 132 91 49 28 358 8 1 348 342 331 340 347 342 341 61
292 8 35 312 4 286 148 188 152 137 142 140 134 133 132 125 125 131 135 131 138 134 142 141 149 161 173 170 148 137 118 42 347 352 354 350 345 341 340 333 338 325 345 81